Theta_e
320 315 312 308 295 293 288 291 293 292 292 299 297 297 297 297 298 292 309 321 325 329 333 340 347 349 349 349 348 347 349 348 347 346 344 341 339 338 338 337 338 338 339 342 340 336 335 335 335
314 314 309 301 292 285 286 293 294 295 295 297 297 297 298 298 303 306 310 321 327 331 331 332 343 348 349 348 348 349 348 347 346 343 341 340 340 338 337 336 336 337 337 336 334 332 331 330 331
312 310 303 295 288 285 287 292 292 294 295 295 298 300 299 298 302 306 313 321 325 327 329 331 341 347 348 348 349 348 348 346 343 342 340 339 336 334 333 332 333 335 334 331 328 325 324 324 324
307 303 297 293 289 293 293 295 292 293 298 295 299 296 298 301 304 306 312 321 322 323 327 333 340 343 343 343 343 343 344 343 341 337 337 335 334 330 329 327 330 329 327 325 323 321 321 321 320
302 298 290 287 288 292 293 295 294 294 293 293 296 295 295 299 302 306 316 320 321 319 323 328 339 342 342 341 341 340 339 338 337 336 334 333 329 327 325 325 325 324 323 321 320 320 320 320 318
297 295 289 285 287 292 294 294 294 293 293 293 296 295 296 297 301 306 314 315 317 317 319 324 333 336 339 338 340 338 337 336 335 334 331 328 326 324 323 322 322 322 321 320 320 319 318 317 316
296 293 288 286 288 292 294 294 294 292 293 295 297 295 296 297 300 307 310 310 313 315 316 319 324 330 331 333 334 334 335 334 332 331 327 325 323 322 321 321 321 321 320 319 317 316 316 315 314
297 294 288 287 287 291 294 293 293 294 295 295 297 294 295 298 302 306 307 308 308 310 313 314 316 319 320 322 329 331 333 332 330 327 325 323 322 321 320 321 320 320 319 316 314 313 313 311 310
296 289 286 288 288 292 293 293 294 296 295 295 297 296 296 296 301 303 301 302 304 307 308 309 311 313 313 314 319 325 327 326 324 322 320 313 305 306 306 313 319 318 316 314 312 310 308 306 306
295 287 288 291 291 292 293 293 294 296 294 293 295 296 296 295 299 301 300 303 302 304 305 306 307 308 308 312 311 311 313 312 309 307 304 300 299 300 303 310 316 315 313 310 309 306 302 295 290
294 291 292 294 295 295 294 292 294 292 293 294 296 297 295 294 296 300 301 304 306 306 305 305 305 305 305 306 306 305 304 303 302 301 298 296 296 299 298 297 296 294 298 293 293 290 289 289 289
293 296 295 296 297 295 293 294 293 294 300 298 298 297 295 294 294 297 299 301 301 302 304 303 303 303 302 303 304 303 302 299 298 297 294 293 293 293 293 291 289 288 288 288 288 288 288 288 289
293 294 297 297 297 296 296 296 294 294 299 298 297 296 295 295 295 296 298 299 298 299 302 302 302 303 302 300 300 300 299 299 297 294 294 293 292 290 290 289 288 287 287 287 286 287 287 287 287
293 294 294 295 295 296 295 297 293 296 297 296 295 295 294 295 296 294 293 295 294 297 300 301 301 303 301 300 300 301 298 296 294 293 294 292 292 290 289 288 287 286 286 286 286 286 285 285 286
293 291 291 292 293 293 294 292 290 298 294 295 294 294 295 294 295 296 298 297 297 296 297 299 300 301 299 299 298 298 298 296 294 293 292 292 291 289 288 288 286 286 286 286 286 285 285 284 285
287 287 285 289 291 291 293 287 296 295 292 294 294 294 293 295 295 297 299 298 298 297 294 295 300 299 298 298 296 297 295 295 295 293 292 292 291 289 287 287 286 286 285 285 284 284 283 283 283
283 282 283 286 292 291 290 286 294 293 292 292 293 294 295 296 296 295 297 298 298 297 296 294 296 297 297 297 295 294 293 294 294 292 291 291 291 289 288 287 286 285 284 284 284 283 282 282 282
282 280 283 283 288 287 287 288 292 296 291 294 296 296 295 297 299 302 297 297 298 297 297 295 294 296 296 296 293 291 290 292 291 292 291 290 291 289 287 286 285 285 284 283 283 282 282 282 281
283 283 282 286 289 286 288 289 291 294 295 295 296 296 295 297 300 301 296 295 294 294 294 294 293 294 294 293 291 291 291 291 291 292 291 290 290 288 287 286 285 284 283 283 282 282 281 281 281
286 285 284 288 290 286 286 287 291 292 293 296 296 296 297 298 297 298 294 293 293 294 294 294 293 293 294 294 294 293 294 292 293 292 290 290 288 287 287 286 284 284 283 282 282 282 281 281 280
284 283 285 285 286 285 284 285 286 290 292 294 296 296 296 296 297 298 295 290 291 292 293 294 294 293 294 294 293 286 286 285 286 287 289 289 288 287 287 285 285 284 283 282 281 281 281 280 279
285 288 287 286 282 279 284 279 286 292 292 290 293 293 292 293 294 294 294 292 291 293 293 294 294 293 293 293 292 291 291 289 290 291 291 289 288 287 286 286 285 284 283 282 282 281 280 280 280
286 287 285 283 281 279 279 278 282 285 286 289 290 292 292 292 292 293 294 293 293 292 291 292 292 292 292 293 293 292 292 293 289 289 288 287 287 286 285 285 284 283 283 282 281 280 280 280 280
288 285 284 281 280 276 281 281 281 283 286 288 290 292 292 292 292 291 291 291 291 290 289 289 289 290 291 292 292 291 292 289 286 286 287 286 286 285 284 284 284 283 283 282 282 281 280 280 280
285 283 277 275 274 277 280 279 286 287 289 290 292 292 291 290 290 290 292 292 290 289 287 287 287 287 289 289 291 291 291 287 287 286 287 285 285 285 284 284 283 282 282 282 282 281 281 280 279
283 284 278 273 272 281 278 278 285 289 291 290 288 290 289 289 289 290 291 290 289 289 286 286 286 286 287 287 288 288 289 288 288 286 287 287 287 287 286 284 284 283 282 281 281 281 281 280 280
281 281 285 281 273 273 282 286 289 288 286 286 288 288 287 289 289 291 291 290 289 288 286 285 285 286 286 286 287 287 288 287 287 285 285 286 286 286 284 284 283 282 282 281 280 280 280 280 280
285 286 280 280 275 272 280 279 284 288 291 291 288 286 288 289 290 291 290 290 290 288 286 285 285 286 286 286 287 288 288 288 286 284 284 285 285 284 283 283 283 282 281 281 280 280 279 279 279
282 282 282 283 282 278 277 281 292 288 286 286 286 290 290 293 293 291 291 290 290 290 288 285 285 285 285 285 285 286 286 285 284 284 285 285 285 284 283 283 283 282 281 281 280 280 279 279 278
287 286 286 282 279 280 282 282 294 293 293 291 290 289 288 288 287 288 288 288 288 287 288 289 288 286 286 286 285 284 284 283 284 285 284 285 284 284 284 283 282 282 281 281 280 279 279 278 277
Wind_Speed
2 2 3 5 5 6 4 7 3 3 2 2 7 6 8 4 7 7 4 7 4 10 7 7 14 15 13 14 14 13 13 13 12 12 11 8 8 7 8 6 5 6 7 11 12 8 8 8 8
1 1 5 3 5 2 6 4 5 6 1 4 3 3 1 7 2 3 2 8 7 9 6 7 10 13 14 13 13 14 14 13 13 12 11 10 10 9 8 8 7 7 6 6 7 7 8 8 9
1 4 4 5 4 5 5 6 4 2 2 2 2 1 2 5 2 4 5 9 7 7 6 6 9 11 14 16 16 13 13 15 13 11 10 11 10 9 9 8 7 7 8 8 7 7 7 8 9
3 5 5 4 6 8 7 5 3 2 1 4 1 5 4 3 6 5 6 9 8 6 6 8 10 10 9 10 10 10 11 12 12 11 12 11 11 11 10 9 9 9 9 8 8 7 8 9 9
5 3 3 2 5 6 6 6 4 3 2 1 2 5 5 3 4 4 8 9 11 7 6 6 10 12 13 11 11 11 12 12 13 12 12 12 11 10 10 10 10 10 9 9 9 9 10 10 9
5 4 3 3 5 6 7 5 4 4 2 1 2 2 7 1 2 5 6 8 7 8 6 6 8 13 11 15 14 14 15 15 14 13 12 12 11 10 10 10 11 10 10 10 10 10 10 10 10
6 4 4 3 5 7 5 4 3 3 2 6 2 2 5 3 6 6 5 5 5 6 7 6 6 11 13 15 13 17 15 15 15 14 14 12 12 12 11 11 11 11 11 11 10 10 10 9 10
6 5 1 4 2 7 3 2 1 5 6 2 5 6 7 0 6 6 6 5 5 5 5 6 6 6 6 5 11 14 12 14 13 13 12 11 10 11 11 10 12 12 12 11 11 10 9 9 10
3 4 2 6 5 6 1 1 2 1 2 3 7 5 2 4 7 6 4 2 4 5 6 6 6 6 6 6 6 7 12 12 12 10 11 8 4 6 6 7 11 13 12 12 12 11 10 10 10
5 4 9 7 5 5 3 4 3 2 4 5 6 6 3 5 6 9 9 12 9 10 9 7 7 7 7 5 6 6 6 5 5 6 7 5 5 5 4 5 9 10 11 11 10 11 9 7 4
5 7 6 6 8 4 5 4 4 3 9 10 10 9 7 7 8 9 10 11 18 11 7 10 8 7 7 6 4 3 3 4 4 7 6 6 4 3 3 3 3 4 6 4 5 5 4 5 4
3 9 6 4 3 2 4 5 5 8 21 7 14 7 5 10 13 16 14 15 11 11 12 9 9 9 7 5 5 5 5 4 4 5 7 5 4 4 4 3 4 3 3 4 3 3 4 4 4
5 5 6 7 6 8 5 14 9 10 21 9 8 8 11 10 13 12 13 9 9 11 12 13 12 12 10 9 5 6 6 6 6 6 6 6 5 5 4 4 4 4 3 3 4 3 4 4 4
4 4 6 7 6 7 7 17 5 13 11 11 8 13 12 12 16 7 9 17 14 14 15 13 15 14 11 12 10 8 6 6 6 5 7 7 6 5 5 5 4 4 4 3 3 3 3 3 3
2 7 8 8 7 9 7 13 12 21 3 13 12 11 11 13 9 18 19 19 18 16 13 18 16 15 14 15 11 8 8 7 7 7 7 8 7 7 7 5 5 4 4 5 4 3 2 3 2
3 1 5 2 7 3 8 10 26 11 6 15 12 12 10 13 13 16 16 16 14 14 18 15 15 18 17 16 11 8 8 8 8 7 7 10 9 9 7 6 5 5 4 4 4 3 2 2 2
2 6 8 12 13 6 8 10 17 4 6 11 11 11 11 13 13 12 15 16 15 18 16 17 18 19 19 15 11 10 9 8 7 6 7 10 10 9 8 6 5 6 5 4 4 2 2 1 1
9 6 7 8 5 5 6 16 12 20 5 16 19 15 15 19 27 21 11 12 12 14 15 15 15 17 16 11 8 5 6 7 6 8 8 10 8 10 8 6 7 6 5 4 3 3 2 2 1
3 6 8 9 8 3 15 18 18 19 20 22 21 20 20 21 23 17 8 9 9 8 12 15 16 18 14 12 12 9 14 11 10 10 12 12 10 10 9 6 7 6 7 6 5 3 4 1 1
9 13 14 14 16 5 14 23 16 17 20 28 24 21 22 19 16 17 9 8 10 12 15 14 17 16 16 14 13 7 11 9 11 10 11 13 12 11 10 10 8 9 6 7 7 5 4 2 1
8 7 16 16 7 6 10 15 13 10 14 22 23 20 15 16 19 19 10 5 7 10 13 15 16 18 17 16 11 4 6 4 4 6 8 11 14 14 14 13 10 10 8 8 7 6 6 5 1
19 12 14 9 4 6 4 14 16 22 20 10 17 10 10 11 9 9 9 6 9 13 9 11 13 15 14 16 15 20 13 12 11 13 11 11 15 15 14 13 13 12 8 8 8 6 4 5 5
11 3 6 3 4 5 4 5 2 3 5 11 10 13 10 7 6 10 10 9 9 8 9 11 11 14 15 18 18 15 15 11 7 7 11 11 11 12 13 13 12 11 9 9 10 8 7 4 5
4 3 3 4 2 8 14 12 3 5 6 4 5 7 5 9 9 8 8 8 7 4 5 6 9 9 13 15 17 19 19 9 8 9 11 10 8 9 11 12 12 11 10 10 9 8 8 7 4
2 6 5 5 1 11 2 6 12 3 8 7 10 9 8 5 8 10 13 14 10 9 5 5 7 7 8 8 12 13 15 10 13 12 11 13 10 9 14 15 13 11 12 10 10 10 9 7 6
7 9 8 9 5 14 1 11 7 9 6 6 1 6 4 7 6 8 10 10 9 9 4 4 5 6 9 8 9 6 8 6 8 9 9 10 12 13 13 14 13 12 12 10 10 7 7 8 6
4 6 3 2 3 3 11 20 9 6 1 2 3 4 6 9 8 10 9 8 8 7 4 5 5 4 6 9 10 11 11 10 11 9 7 8 7 9 12 15 15 14 14 13 11 8 9 9 8
6 3 1 2 2 7 13 8 16 11 18 14 9 7 11 9 11 9 7 6 9 7 4 4 6 8 8 8 10 10 12 13 9 9 12 11 10 10 13 15 15 14 14 15 14 9 9 11 8
2 3 4 3 6 10 11 15 12 10 2 5 3 7 9 14 21 20 19 18 16 15 12 7 7 7 7 7 6 7 7 7 6 10 11 13 12 14 15 16 16 16 16 15 15 14 13 14 11
8 10 11 13 11 11 19 23 26 19 15 9 20 19 16 17 15 15 16 17 17 17 17 15 12 7 7 7 7 8 7 8 9 12 13 12 13 13 15 15 15 16 17 17 18 17 16 17 15
Wind_Direction
21 17 70 42 48 59 270 262 260 258 248 163 126 149 195 172 169 211 316 195 173 155 176 172 173 179 180 168 167 175 175 155 147 144 137 112 115 110 114 121 99 76 79 80 79 68 66 58 52
3 156 43 78 90 50 268 253 234 234 271 121 136 140 160 246 236 265 148 205 177 157 163 173 160 170 180 178 180 178 159 156 148 126 120 117 120 117 121 125 128 124 112 105 91 76 68 67 63
98 39 83 93 113 192 226 224 233 253 174 173 249 226 208 227 240 219 215 163 154 149 155 162 152 164 178 175 171 171 159 154 136 131 143 149 152 150 141 131 126 119 116 106 97 84 76 68 63
45 12 36 100 226 251 219 249 230 287 266 232 201 271 278 229 167 196 153 153 146 154 151 164 176 174 164 149 154 159 145 144 143 163 170 172 158 153 143 137 129 120 116 106 100 96 88 80 69
37 55 49 321 262 264 254 264 183 206 273 202 161 273 259 252 50 145 152 152 160 161 164 167 184 191 173 178 170 165 176 192 189 181 174 167 160 152 146 141 134 130 120 114 111 101 92 83 79
40 92 40 264 262 273 273 241 166 198 222 243 180 277 246 339 164 181 151 153 153 158 168 178 191 192 188 192 188 189 195 194 184 181 174 169 161 153 149 142 134 131 122 116 107 100 92 84 79
113 90 225 253 268 303 263 137 193 194 223 252 153 229 263 256 191 146 135 126 151 160 165 181 190 189 193 197 190 194 196 185 183 176 175 168 163 155 154 146 139 133 126 116 111 98 90 82 75
106 94 278 251 263 274 310 214 214 180 252 69 173 240 263 353 129 114 118 144 171 186 190 183 177 166 172 182 177 195 174 175 177 177 166 157 155 151 153 147 147 141 133 126 115 107 98 81 70
134 62 251 253 182 251 187 287 227 138 287 221 209 217 231 112 120 109 126 182 204 213 205 191 185 176 168 169 172 171 162 168 172 161 139 124 119 122 124 159 150 146 138 129 122 118 108 93 77
109 142 225 214 208 243 287 206 266 297 246 252 278 249 132 148 176 171 184 199 207 210 206 194 186 182 170 169 168 155 153 151 146 141 130 133 145 147 149 140 142 139 134 128 120 108 97 86 69
176 207 214 244 229 267 267 272 218 175 274 212 223 243 184 180 206 212 218 208 212 206 193 196 188 183 175 176 163 161 151 148 150 150 146 148 148 148 121 92 73 64 76 54 72 77 66 70 70
217 242 217 257 209 270 246 301 249 182 255 199 225 238 168 197 208 212 215 218 208 198 203 187 187 185 187 172 181 172 167 166 168 167 159 152 157 159 151 135 142 135 119 123 120 113 107 86 79
217 237 233 240 259 255 288 252 237 247 261 246 245 237 232 220 223 223 225 227 203 209 204 200 188 192 187 185 174 175 183 180 174 167 171 163 166 167 152 155 155 149 147 154 147 135 124 124 105
210 254 270 278 244 238 204 268 146 252 265 271 220 241 237 224 226 220 219 230 212 208 206 194 199 196 185 194 187 189 182 172 173 174 181 174 167 160 162 158 168 161 164 154 144 154 138 104 94
300 310 309 221 236 232 162 295 224 251 214 270 265 252 255 239 218 226 229 225 215 214 199 198 194 193 193 196 191 187 186 175 182 186 178 175 170 171 165 161 168 169 165 157 143 145 122 100 85
294 174 309 252 148 265 156 250 274 249 232 269 268 279 262 259 233 234 233 225 212 206 200 188 190 191 194 197 190 189 186 185 189 183 179 181 179 172 164 164 173 161 163 167 160 148 123 108 88
334 242 228 305 204 132 184 248 265 265 192 268 278 272 279 282 270 241 235 226 211 207 200 196 190 191 193 193 186 185 178 191 192 179 183 186 182 175 168 171 164 160 158 173 163 120 143 136 35
225 226 252 248 295 176 224 253 273 286 238 252 268 270 262 264 265 266 240 224 215 209 205 197 192 194 189 184 173 163 168 184 173 188 192 183 185 175 167 161 161 159 155 172 158 150 86 123 111
181 232 247 256 261 264 260 264 264 269 285 270 262 266 263 257 269 274 243 217 212 201 197 196 188 191 175 180 178 188 197 192 191 193 190 185 181 176 173 170 159 161 174 171 170 132 139 82 72
250 261 266 274 265 219 268 273 267 256 251 260 268 269 266 278 279 276 252 212 199 205 203 197 203 190 189 188 192 195 192 208 203 189 178 178 174 174 176 173 175 175 160 173 177 157 140 126 118
224 228 258 262 310 253 299 276 236 269 256 262 268 260 274 271 277 283 292 251 236 222 204 208 201 196 195 190 175 112 92 69 145 180 189 193 182 176 176 174 174 176 175 183 181 173 164 151 109
268 223 255 266 353 262 3 296 294 274 264 247 269 259 251 254 273 296 288 267 228 239 213 207 198 195 194 185 185 190 195 188 199 196 194 190 187 185 181 179 176 176 178 174 183 172 171 147 160
238 204 242 186 204 328 217 255 2 85 260 265 263 268 262 296 285 299 300 278 246 244 212 205 191 191 190 189 188 194 215 210 160 168 176 178 181 183 182 181 180 181 180 180 171 166 183 194 150
90 68 47 48 76 268 197 197 13 153 203 310 295 262 342 348 335 324 281 285 301 307 271 205 187 196 189 191 200 198 205 186 159 160 171 178 179 179 185 182 183 181 184 179 181 180 178 181 174
139 94 311 321 355 250 291 226 237 233 233 206 251 295 334 347 351 340 356 341 333 310 245 210 197 184 181 195 211 209 207 186 186 177 180 171 178 189 193 182 185 186 182 185 175 175 175 181 182
186 169 172 230 241 286 77 248 255 211 233 235 69 249 298 6 333 346 336 317 318 299 274 211 189 182 184 180 203 213 216 195 201 187 183 187 192 195 185 191 187 184 181 178 177 182 180 163 177
174 180 221 291 40 290 266 279 279 250 215 288 57 231 10 321 321 319 326 311 303 303 305 228 221 242 204 197 193 196 197 202 199 182 179 183 185 180 176 184 185 181 179 179 176 181 181 174 177
169 214 41 355 231 256 278 292 258 305 299 310 357 7 313 296 306 296 328 335 332 337 339 271 235 220 208 210 216 219 210 204 194 168 184 187 184 174 173 185 189 186 184 180 176 179 175 177 178
146 234 228 294 211 236 258 265 268 261 324 298 310 316 312 335 352 4 8 17 17 6 6 340 327 314 301 288 263 234 221 222 187 192 196 194 182 180 181 184 190 187 187 188 186 184 174 183 177
193 230 229 245 257 237 249 251 290 296 297 336 20 32 35 26 10 9 9 6 15 9 4 3 356 323 282 265 244 234 218 200 205 210 208 201 198 190 185 183 187 190 191 191 192 190 183 180 182